This demonstration page uses our WeatherBlox Daily Observations layout. Learn more.

Left ArrowRight Arrow

41.86663, -103.66717

Hourly Observations for December 14, 2020

Temp ( °F °C ) Dew Point ( °F °C ) Humidity (%) Winds ( mph kmh ) Pressure ( in mb ) Visibility ( mi km ) Precip ( " mm )
12:53 am 00:53 Mostly Cloudy 20 -6.7 11 -11.7 68 68 E 10 17 30.12 1020 10 16 0.00 0.00
1:53 am 01:53 Cloudy 21 -6.1 12 -11.1 68 68 E 10 17 30.10 1019 10 16 0.00 0.00
2:53 am 02:53 Cloudy 20 -6.7 12 -11.1 71 71 E 7 11 30.11 1020 10 16 0.00 0.00
3:53 am 03:53 Mostly Clear 19 -7.2 11 -11.7 71 71 Calm 30.09 1019 10 16 0.00 0.00
4:53 am 04:53 Mostly Cloudy 19 -7.2 11 -11.7 71 71 ESE 6 9 30.09 1019 10 16 0.00 0.00
5:53 am 05:53 Clear 18 -7.8 10 -12.2 71 71 E 5 7 30.10 1019 10 16 0.00 0.00
6:53 am 06:53 Mostly Clear 15 -9.4 8 -13.3 74 74 E 5 7 30.11 1020 10 16 0.00 0.00
7:53 am 07:53 Sunny 17 -8.3 9 -12.8 70 70 E 6 9 30.12 1020 10 16 0.00 0.00
8:53 am 08:53 Sunny 19 -7.2 11 -11.7 71 71 ESE 8 13 30.14 1021 10 16 0.00 0.00
9:53 am 09:53 Sunny 20 -6.7 13 -10.6 74 74 ESE 6 9 30.11 1020 10 16 0.00 0.00
10:53 am 10:53 Sunny 23 -5 14 -10 68 68 Calm 30.10 1019 10 16 0.00 0.00
11:53 am 11:53 Sunny 24 -4.4 15 -9.4 68 68 ESE 5 7 30.06 1018 10 16 0.00 0.00
12:53 pm 12:53 Mostly Cloudy 24 -4.4 16 -8.9 71 71 Calm 30.05 1018 10 16 0.00 0.00
1:53 pm 13:53 Mostly Sunny 25 -3.9 16 -8.9 69 69 E 5 7 30.03 1017 10 16 0.00 0.00
2:53 pm 14:53 Sunny 25 -3.9 16 -8.9 69 69 Calm 30.03 1017 10 16 0.00 0.00
3:53 pm 15:53 Cloudy 24 -4.4 17 -8.3 75 75 Calm 30.05 1018 10 16 0.00 0.00
4:53 pm 16:53 Cloudy 22 -5.6 16 -8.9 78 78 NNW 6 9 30.07 1018 10 16 0.00 0.00
5:53 pm 17:53 Cloudy 23 -5 16 -8.9 74 74 WNW 6 9 30.09 1019 10 16 0.00 0.00
6:53 pm 18:53 Mostly Clear 19 -7.2 14 -10 81 81 WNW 7 11 30.12 1020 10 16 0.00 0.00
7:53 pm 19:53 Cloudy 22 -5.6 16 -8.9 78 78 WNW 7 11 30.11 1020 10 16 0.00 0.00
8:53 pm 20:53 Cloudy 22 -5.6 16 -8.9 78 78 WNW 7 11 30.11 1020 10 16 0.00 0.00
9:46 pm 21:46 Cloudy 22 -5.6 17 -8.3 82 82 NNW 3 6 30.18 1022 10 16 0.00 0.00
9:53 pm 21:53 Cloudy 22 -5.6 16 -8.9 78 78 NNW 5 7 30.12 1020 10 16 0.00 0.00
10:53 pm 22:53 Cloudy 22 -5.6 17 -8.3 82 82 WNW 6 9 30.11 1020 7 11 0.00 0.00
11:33 pm 23:33 Cloudy 22 -5.6 17 -8.3 82 82 WNW 6 9 30.19 1022 9 14 0.00 0.00
11:53 pm 23:53 Cloudy 22 -5.6 17 -8.3 82 82 WNW 6 9 30.12 1020 8 13 0.00 0.00

Powered by AerisWeather